This is the latest recevied weather packets stored in our database for station/object WD4IXD-WX. If no packets are shown the sender has not sent any weather packets the latest 10 day(s).
| Time | Temp. | Humidity | Pressure | Rain* | Wind** | Luminosity | Snow |
|---|---|---|---|---|---|---|---|
| 1778117404 | 0° C | 63% | 1019 hPa | 0 mm | - | 37 W/m² | - |
| 1778117104 | 0° C | 64% | 1019 hPa | 0 mm | - | 53 W/m² | - |
| 1778116804 | 0° C | 65% | 1018.9 hPa | 0 mm | - | 67 W/m² | - |
| 1778116504 | 0° C | 65% | 1018.9 hPa | 0 mm | - | 83 W/m² | - |
| 1778116204 | 0° C | 67% | 1018.8 hPa | 0 mm | - | 100 W/m² | - |
| 1778115904 | 0° C | 66% | 1018.8 hPa | 0 mm | - | 121 W/m² | - |
| 1778115603 | 0.56° C | 65% | 1018.7 hPa | 0 mm | - | 139 W/m² | - |
| 1778115304 | 0.56° C | 66% | 1018.7 hPa | 0 mm | - | 156 W/m² | - |
| 1778115004 | 0° C | 66% | 1018.6 hPa | 0 mm | - | 176 W/m² | - |
| 1778114704 | 0° C | 66% | 1018.6 hPa | 0 mm | - | 199 W/m² | - |
| 1778114404 | 0° C | 67% | 1018.6 hPa | 0 mm | - | 220 W/m² | - |
| 1778114104 | 0° C | 71% | 1018.6 hPa | 0 mm | - | 243 W/m² | - |
| 1778113804 | 0° C | 69% | 1018.5 hPa | 0 mm | - | 264 W/m² | - |
| 1778113504 | 0° C | 69% | 1018.4 hPa | 0 mm | - | 287 W/m² | - |
| 1778113204 | 0° C | 71% | 1018.5 hPa | 0 mm | - | 301 W/m² | - |
| 1778112904 | 0° C | 71% | 1018.4 hPa | 0 mm | - | 320 W/m² | - |
| 1778112604 | 0° C | 71% | 1018.4 hPa | 0 mm | - | 339 W/m² | - |
| 1778112304 | -0.56° C | 72% | 1018.4 hPa | 0 mm | - | 359 W/m² | - |
| 1778112004 | -0.56° C | 72% | 1018.4 hPa | 0 mm | - | 376 W/m² | - |
| 1778111704 | -0.56° C | 70% | 1018.5 hPa | 0 mm | - | 394 W/m² | - |
| 1778111404 | -0.56° C | 70% | 1018.4 hPa | 0 mm | - | 413 W/m² | - |
| 1778111104 | 0° C | 71% | 1018.3 hPa | 0 mm | - | 427 W/m² | - |
| 1778110804 | 0° C | 72% | 1018.2 hPa | 0 mm | - | 446 W/m² | - |
| 1778110504 | 0° C | 73% | 1018.2 hPa | 0 mm | - | 464 W/m² | - |
| 1778110204 | -0.56° C | 73% | 1018.2 hPa | 0 mm | - | 482 W/m² | - |
* Rain latest hour (hover to see other rain measurements)
** Current wind speed in m/s (hover to see current wind gust speed)